User: anonymous   Login
Location: Unspecified
(0.0000°N, 0.0000°E)
Time: 01:50:27
(UTC+00:00)
Language:

STARLINK-32409 - Orbit

View from above orbital plane
View from above orbital plane
View from above satellite
View from above satellite

Ground track
Ground track

The orbit is defined by the following mean orbital elements,

1 61591U          26145.03624317 +.00000000 +00000-0 +84528-5 0 00001
2 61591  53.1607  55.4181 0000491  85.7317 274.3741 15.33548547    08
Epoch (UTC): 25 May 2026 00:52:11
Eccentricity: 0.0000491
inclination: 53.1607°
perigee height: 465 km
apogee height: 466 km
right ascension of ascending node: 55.4181°
argument of perigee: 85.7317°
revolutions per day: 15.33548547
mean anomaly at epoch: 274.3741°

The dashed part of the orbit path shows where the satellite is in the earth's shadow,  

DLR